Time,TemperatureF,DewpointF,PressureIn,WindDirection,WindDirectionDegrees,WindSpeedMPH,WindSpeedGustMPH,Humidity,HourlyPrecipIn,Conditions,Clouds,dailyrainin,SoftwareType,DateUTC
2013-08-02 00:14:00,52.9,52.0,29.75,West,259,0.0,0.0,95,0.00,,,0.00,weatherlink.com 1.10,2013-08-02 04:14:00,
2013-08-02 00:29:00,52.5,51.0,29.75,West,259,0.0,0.0,95,0.00,,,0.00,weatherlink.com 1.10,2013-08-02 04:29:00,
2013-08-02 00:44:00,52.0,51.0,29.75,West,259,0.0,0.0,95,0.00,,,0.00,weatherlink.com 1.10,2013-08-02 04:44:00,
2013-08-02 00:59:00,51.7,51.0,29.74,West,259,0.0,0.0,96,0.00,,,0.00,weatherlink.com 1.10,2013-08-02 04:59:00,
2013-08-02 01:14:00,51.7,51.0,29.73,West,259,0.0,0.0,96,0.00,,,0.00,weatherlink.com 1.10,2013-08-02 05:14:00,
2013-08-02 01:29:00,52.0,51.0,29.73,West,265,0.0,1.0,96,0.00,,,0.00,weatherlink.com 1.10,2013-08-02 05:29:00,
2013-08-02 01:44:00,52.0,51.0,29.72,West,263,0.0,0.0,96,0.00,,,0.00,weatherlink.com 1.10,2013-08-02 05:44:00,
2013-08-02 01:59:00,51.9,51.0,29.72,SW,228,0.0,1.0,96,0.00,,,0.00,weatherlink.com 1.10,2013-08-02 05:59:00,
2013-08-02 02:14:00,51.7,51.0,29.72,SW,227,0.0,0.0,96,0.00,,,0.00,weatherlink.com 1.10,2013-08-02 06:14:00,
2013-08-02 02:29:00,51.9,51.0,29.71,SW,229,0.0,0.0,97,0.00,,,0.00,weatherlink.com 1.10,2013-08-02 06:29:00,
2013-08-02 02:44:00,51.6,51.0,29.71,SW,229,0.0,0.0,96,0.00,,,0.00,weatherlink.com 1.10,2013-08-02 06:44:00,
2013-08-02 02:59:00,51.7,51.0,29.70,SSW,209,0.0,2.0,97,0.00,,,0.00,weatherlink.com 1.10,2013-08-02 06:59:00,
2013-08-02 03:14:00,51.5,51.0,29.71,SSW,208,0.0,0.0,97,0.00,,,0.00,weatherlink.com 1.10,2013-08-02 07:14:00,
2013-08-02 03:29:00,51.3,51.0,29.71,SE,141,0.0,0.0,97,0.00,,,0.00,weatherlink.com 1.10,2013-08-02 07:29:00,
2013-08-02 03:45:00,51.0,50.0,29.70,SE,141,0.0,0.0,97,0.00,,,0.00,weatherlink.com 1.10,2013-08-02 07:45:00,
2013-08-02 04:00:00,51.4,51.0,29.70,WSW,246,0.0,1.0,97,0.00,,,0.00,weatherlink.com 1.10,2013-08-02 08:00:00,
2013-08-02 04:15:00,51.5,51.0,29.70,WSW,250,0.0,1.0,97,0.00,,,0.00,weatherlink.com 1.10,2013-08-02 08:15:00,
2013-08-02 04:30:00,51.2,50.0,29.69,WSW,243,0.0,0.0,97,0.00,,,0.00,weatherlink.com 1.10,2013-08-02 08:30:00,
2013-08-02 04:45:00,51.1,50.0,29.69,WSW,243,0.0,0.0,97,0.00,,,0.00,weatherlink.com 1.10,2013-08-02 08:45:00,
2013-08-02 05:00:00,50.7,50.0,29.69,West,259,0.0,0.0,97,0.00,,,0.00,weatherlink.com 1.10,2013-08-02 09:00:00,
2013-08-02 05:15:00,50.4,50.0,29.70,WSW,257,0.0,0.0,97,0.00,,,0.00,weatherlink.com 1.10,2013-08-02 09:15:00,
2013-08-02 05:30:00,50.3,50.0,29.70,WSW,240,1.0,1.0,97,0.00,,,0.00,weatherlink.com 1.10,2013-08-02 09:30:00,
2013-08-02 05:45:00,50.3,50.0,29.70,WSW,243,0.0,0.0,97,0.00,,,0.00,weatherlink.com 1.10,2013-08-02 09:45:00,
2013-08-02 06:00:00,50.2,49.0,29.70,WSW,243,0.0,0.0,97,0.00,,,0.00,weatherlink.com 1.10,2013-08-02 10:00:00,
2013-08-02 06:15:00,50.8,50.0,29.70,WSW,249,0.0,1.0,97,0.00,,,0.00,weatherlink.com 1.10,2013-08-02 10:15:00,
2013-08-02 06:30:00,51.6,51.0,29.70,West,271,0.0,1.0,98,0.00,,,0.00,weatherlink.com 1.10,2013-08-02 10:30:00,
2013-08-02 06:45:00,52.6,52.0,29.69,West,270,0.0,0.0,97,0.00,,,0.00,weatherlink.com 1.10,2013-08-02 10:45:00,
2013-08-02 07:00:00,52.6,52.0,29.69,West,270,0.0,0.0,96,0.00,,,0.00,weatherlink.com 1.10,2013-08-02 11:00:00,
2013-08-02 07:15:00,52.9,52.0,29.69,West,270,0.0,0.0,96,0.00,,,0.00,weatherlink.com 1.10,2013-08-02 11:15:00,
2013-08-02 07:30:00,53.5,53.0,29.70,WSW,243,0.0,1.0,97,0.00,,,0.00,weatherlink.com 1.10,2013-08-02 11:30:00,
2013-08-02 07:45:00,54.7,54.0,29.70,WSW,243,0.0,0.0,97,0.00,,,0.00,weatherlink.com 1.10,2013-08-02 11:45:00,
2013-08-02 08:00:00,55.8,55.0,29.69,SE,141,0.0,1.0,97,0.00,,,0.00,weatherlink.com 1.10,2013-08-02 12:00:00,
2013-08-02 08:15:00,57.1,56.0,29.69,SE,142,1.0,1.0,96,0.00,,,0.00,weatherlink.com 1.10,2013-08-02 12:15:00,
2013-08-02 08:30:00,58.0,57.0,29.69,SSE,151,0.0,2.0,95,0.00,,,0.00,weatherlink.com 1.10,2013-08-02 12:30:00,
2013-08-02 08:45:00,58.6,57.0,29.69,SSE,160,1.0,3.0,94,0.00,,,0.00,weatherlink.com 1.10,2013-08-02 12:45:00,
2013-08-02 09:00:00,59.3,58.0,29.68,SSE,159,0.0,2.0,94,0.00,,,0.00,weatherlink.com 1.10,2013-08-02 13:00:00,
2013-08-02 09:15:00,60.0,58.0,29.68,SSE,153,0.0,5.0,94,0.00,,,0.00,weatherlink.com 1.10,2013-08-02 13:15:00,
2013-08-02 09:30:00,60.2,59.0,29.68,SW,219,1.0,4.0,94,0.01,,,0.01,weatherlink.com 1.10,2013-08-02 13:30:00,
2013-08-02 09:45:00,60.0,58.0,29.70,SSE,167,8.0,11.0,94,0.05,,,0.05,weatherlink.com 1.10,2013-08-02 13:45:00,
2013-08-02 10:00:00,58.6,57.0,29.71,WNW,293,0.0,6.0,93,0.08,,,0.08,weatherlink.com 1.10,2013-08-02 14:00:00,
2013-08-02 10:15:00,58.1,57.0,29.71,North,353,5.0,7.0,95,0.09,,,0.09,weatherlink.com 1.10,2013-08-02 14:15:00,
2013-08-02 10:30:00,58.0,57.0,29.71,NNW,338,1.0,2.0,95,0.08,,,0.09,weatherlink.com 1.10,2013-08-02 14:30:00,
2013-08-02 10:45:00,58.1,57.0,29.70,NNW,340,6.0,6.0,95,0.04,,,0.10,weatherlink.com 1.10,2013-08-02 14:45:00,
2013-08-02 11:00:00,58.7,57.0,29.70,NNE,20,8.0,9.0,95,0.03,,,0.11,weatherlink.com 1.10,2013-08-02 15:00:00,
2013-08-02 11:15:00,59.0,58.0,29.70,NE,46,2.0,6.0,95,0.02,,,0.11,weatherlink.com 1.10,2013-08-02 15:15:00,
2013-08-02 11:30:00,59.1,58.0,29.70,NNW,345,5.0,10.0,95,0.02,,,0.11,weatherlink.com 1.10,2013-08-02 15:30:00,
2013-08-02 11:45:00,58.9,58.0,29.70,ENE,57,2.0,8.0,95,0.08,,,0.18,weatherlink.com 1.10,2013-08-02 15:45:00,
2013-08-02 12:00:00,58.4,57.0,29.69,ENE,68,3.0,4.0,95,0.12,,,0.23,weatherlink.com 1.10,2013-08-02 16:00:00,
2013-08-02 12:15:00,58.3,57.0,29.69,East,94,2.0,4.0,94,0.13,,,0.24,weatherlink.com 1.10,2013-08-02 16:15:00,
2013-08-02 12:30:00,59.0,58.0,29.69,ENE,70,1.0,3.0,95,0.15,,,0.26,weatherlink.com 1.10,2013-08-02 16:30:00,
2013-08-02 12:45:00,60.6,58.0,29.68,ENE,74,0.0,1.0,92,0.08,,,0.26,weatherlink.com 1.10,2013-08-02 16:45:00,
2013-08-02 13:01:00,62.3,59.0,29.68,East,79,1.0,1.0,90,0.03,,,0.26,weatherlink.com 1.10,2013-08-02 17:01:00,
2013-08-02 13:15:00,62.5,59.0,29.68,East,98,2.0,2.0,88,0.02,,,0.26,weatherlink.com 1.10,2013-08-02 17:15:00,
2013-08-02 13:31:00,63.6,60.0,29.68,ESE,111,2.0,3.0,88,0.00,,,0.26,weatherlink.com 1.10,2013-08-02 17:31:00,
2013-08-02 13:46:00,63.7,60.0,29.67,East,84,1.0,3.0,87,0.00,,,0.26,weatherlink.com 1.10,2013-08-02 17:46:00,
2013-08-02 14:01:00,63.7,60.0,29.68,West,260,0.0,3.0,87,0.05,,,0.31,weatherlink.com 1.10,2013-08-02 18:01:00,
2013-08-02 14:16:00,62.0,60.0,29.68,WNW,288,0.0,1.0,92,0.14,,,0.40,weatherlink.com 1.10,2013-08-02 18:16:00,
2013-08-02 14:31:00,62.9,61.0,29.67,West,269,0.0,0.0,94,0.14,,,0.40,weatherlink.com 1.10,2013-08-02 18:31:00,
2013-08-02 14:46:00,63.9,60.0,29.68,ESE,123,1.0,2.0,88,0.14,,,0.40,weatherlink.com 1.10,2013-08-02 18:46:00,
2013-08-02 15:01:00,64.2,60.0,29.67,East,85,3.0,3.0,87,0.05,,,0.40,weatherlink.com 1.10,2013-08-02 19:01:00,
2013-08-02 15:16:00,64.7,61.0,29.67,ESE,106,3.0,4.0,88,0.00,,,0.40,weatherlink.com 1.10,2013-08-02 19:16:00,
2013-08-02 15:31:00,65.2,61.0,29.68,SSE,162,4.0,5.0,87,0.00,,,0.40,weatherlink.com 1.10,2013-08-02 19:31:00,
2013-08-02 15:46:00,66.5,62.0,29.67,East,96,2.0,5.0,84,0.00,,,0.40,weatherlink.com 1.10,2013-08-02 19:46:00,
2013-08-02 16:01:00,66.9,61.0,29.67,ENE,61,0.0,3.0,81,0.00,,,0.40,weatherlink.com 1.10,2013-08-02 20:01:00,
2013-08-02 16:16:00,69.1,61.0,29.67,SW,229,3.0,5.0,75,0.00,,,0.40,weatherlink.com 1.10,2013-08-02 20:16:00,
2013-08-02 16:31:00,69.4,60.0,29.67,SSW,204,3.0,8.0,71,0.00,,,0.40,weatherlink.com 1.10,2013-08-02 20:31:00,
2013-08-02 17:01:00,69.5,60.0,29.68,WSW,252,3.0,8.0,72,0.00,,,0.40,weatherlink.com 1.10,2013-08-02 21:01:00,
2013-08-02 17:16:00,70.2,58.0,29.68,South,187,2.0,8.0,66,0.00,,,0.40,weatherlink.com 1.10,2013-08-02 21:16:00,
2013-08-02 17:31:00,70.2,59.0,29.68,NNW,345,5.0,10.0,67,0.00,,,0.40,weatherlink.com 1.10,2013-08-02 21:31:00,
2013-08-02 18:31:00,66.9,58.0,29.69,North,3,2.0,9.0,72,0.00,,,0.40,weatherlink.com 1.10,2013-08-02 22:31:00,
2013-08-02 18:46:00,67.5,58.0,29.70,West,276,1.0,6.0,72,0.00,,,0.40,weatherlink.com 1.10,2013-08-02 22:46:00,
2013-08-02 19:01:00,66.4,57.0,29.70,WNW,300,3.0,14.0,72,0.00,,,0.40,weatherlink.com 1.10,2013-08-02 23:01:00,
2013-08-02 19:46:00,63.6,56.0,29.72,West,276,1.0,7.0,75,0.00,,,0.40,weatherlink.com 1.10,2013-08-02 23:46:00,
2013-08-02 20:01:00,62.4,55.0,29.73,West,280,4.0,11.0,77,0.00,,,0.40,weatherlink.com 1.10,2013-08-03 00:01:00,
2013-08-02 20:16:00,61.3,55.0,29.73,West,270,1.0,4.0,81,0.00,,,0.40,weatherlink.com 1.10,2013-08-03 00:16:00,
2013-08-02 20:31:00,60.5,55.0,29.73,WNW,282,0.0,3.0,83,0.00,,,0.40,weatherlink.com 1.10,2013-08-03 00:31:00,
2013-08-02 20:46:00,59.5,55.0,29.73,WSW,243,0.0,3.0,85,0.00,,,0.40,weatherlink.com 1.10,2013-08-03 00:46:00,
2013-08-02 21:01:00,58.6,55.0,29.73,NW,306,3.0,6.0,87,0.00,,,0.40,weatherlink.com 1.10,2013-08-03 01:01:00,
2013-08-02 21:16:00,57.7,55.0,29.74,ENE,77,2.0,4.0,89,0.00,,,0.40,weatherlink.com 1.10,2013-08-03 01:16:00,
2013-08-02 21:31:00,57.3,54.0,29.74,WSW,257,3.0,6.0,89,0.00,,,0.40,weatherlink.com 1.10,2013-08-03 01:31:00,
2013-08-02 21:46:00,57.1,54.0,29.75,WNW,300,0.0,4.0,89,0.00,,,0.40,weatherlink.com 1.10,2013-08-03 01:46:00,
2013-08-02 22:01:00,56.4,54.0,29.75,West,274,0.0,3.0,90,0.00,,,0.40,weatherlink.com 1.10,2013-08-03 02:01:00,
2013-08-02 22:16:00,55.6,53.0,29.75,SW,226,0.0,1.0,92,0.00,,,0.40,weatherlink.com 1.10,2013-08-03 02:16:00,
2013-08-02 22:31:00,54.9,53.0,29.75,WSW,256,0.0,1.0,93,0.00,,,0.40,weatherlink.com 1.10,2013-08-03 02:31:00,
2013-08-02 22:46:00,54.4,53.0,29.76,SSW,196,0.0,1.0,94,0.00,,,0.40,weatherlink.com 1.10,2013-08-03 02:46:00,
2013-08-02 23:01:00,54.0,53.0,29.77,SE,124,0.0,1.0,95,0.00,,,0.40,weatherlink.com 1.10,2013-08-03 03:01:00,
2013-08-02 23:16:00,53.6,52.0,29.77,SSE,158,0.0,0.0,95,0.00,,,0.40,weatherlink.com 1.10,2013-08-03 03:16:00,
2013-08-02 23:32:00,53.0,52.0,29.77,SSE,158,0.0,0.0,95,0.00,,,0.40,weatherlink.com 1.10,2013-08-03 03:32:00,
2013-08-02 23:47:00,52.6,52.0,29.77,SE,145,0.0,0.0,96,0.00,,,0.40,weatherlink.com 1.10,2013-08-03 03:47:00,